AZERSPACE 1

Last updated on Thu Jul 03 2025 00:02:46 GMT+0000 (Coordinated Universal Time)

1 39079U 13006B 25183.50438012 .00000140 00000+0 00000+0 0 9993 2 39079 0.0169 34.3716 0001294 82.9978 30.9701 1.00271073 45302
UTC large
Height (km)
Speed (km/s)
/
Latitude / Longitude
Inclination (degrees)
Orbital Period (minutes)
Azimuth
Elevation
Range (km)
Doppler Factor

Next 0 passes for location: London (51.5072 / 0.1276)

Sorry there are no passes over London.